Tracking 19720 objects as of 26-Jun-2019
HD Live streaming from Space Station
objects crossing your sky now

DELTA 1 DEB

Track DELTA 1 DEB now!
10-day predictions


NORAD ID: 7068
Int'l Code: 1973-086BL
Perigee: 1,176.9 km
Apogee: 1,509.8 km
Inclination: 102.4 °
Period: 112.4 minutes
Semi major axis: 7714 km
RCS: 0.0563 m2 (small)
Launch date: November 6, 1973
Source: United States (US)
Launch site: AIR FORCE WESTERN TEST RANGE (AFWTR)

Note: This is SATELLITE DEBRIS
aabbcc
Your satellite tracking list
Your tracking list is empty




NASA's NSSDC Master Catalog

Two Line Element Set (TLE):
1  7068U 73086BL  19176.10842067 -.00000031 +00000-0 +82882-4 0  9994
2  7068 102.3524 236.8559 0215761 167.1612 250.7960 12.81317661132229
Source of the keplerian elements: AFSPC